Appleton, MN

11:04 PM CST on February 21, 2017 (GMT -0600)
Appleton Municipal

Weather History for KAQP - December, 2013

Change the Weather History Date:

Tuesday, December 3, 2013

  Actual Average Record
Temperature  
Mean Temperature 30 °F -  
Max Temperature 33 °F 30 °F 53 °F (1998)
Min Temperature 26 °F 15 °F -9 °F (2007)
Degree Days  
Heating Degree Days 36    
Moisture  
Dew Point 29 °F    
Average Humidity 97    
Maximum Humidity 100    
Minimum Humidity 87    
Precipitation  
Precipitation 0.00 in - - ()
Sea Level Pressure  
Sea Level Pressure 29.69 in    
Wind  
Wind Speed 4 mph (NW)    
Max Wind Speed 12 mph    
Max Gust Speed -    
Visibility 3 miles    
Events Fog    
Averages and records for this station are not official NWS values.
T = Trace of Precipitation, MM = Missing Value Source: NWS Daily Summary

Daily Weather History Graph

Daily Weather History Graph

Search for Another Location

Airport or City:

Trip Planner

Search our weather history database for the weather conditions in past years. The results will help you decide how hot, cold, wet, or windy it might be!

Date:

Astronomy

Dec. 03, 2013 Rise Set
Actual Time 7:45 AM CST 4:42 PM CST
Civil Twilight 7:11 AM CST 5:15 PM CST
Nautical Twilight 6:34 AM CST 5:52 PM CST
Astronomical Twilight 5:59 AM CST 6:28 PM CST
Moon 8:14 AM CST (12/3) 5:48 PM CST (12/3)
Length of Visible Light 10h 03m
Length of Day
8h 57m
New Moon, 1% of the Moon is Illuminated
Dec 3
New Moon
Dec 9
First Quarter
Dec 17
Full
Dec 25
Last Quarter
Jan 1
New

Hourly Weather History & Observations

Time (CST) Temp. Windchill Dew Point Humidity Pressure Visibility Wind Dir Wind Speed Gust Speed Precip Events Conditions
12:13 AM 33.8 °F 26.4 °F 32.0 °F 93% 29.58 in 0.2 mi NW 9.2 mph - N/A Fog Fog
12:33 AM 33.8 °F 27.0 °F 32.0 °F 93% 29.59 in 0.2 mi WNW 8.1 mph - N/A Fog Fog
12:53 AM 33.8 °F 27.7 °F 33.8 °F 100% 29.59 in 0.5 mi NW 6.9 mph - N/A Fog Fog
1:13 AM 33.8 °F 27.7 °F 33.8 °F 100% 29.60 in 0.5 mi NW 6.9 mph - N/A Fog Fog
1:33 AM 33.8 °F 25.8 °F 33.8 °F 100% 29.60 in 0.2 mi NW 10.4 mph - N/A Fog Fog
1:54 AM 33.8 °F 25.8 °F 33.8 °F 100% 29.60 in 0.5 mi NW 10.4 mph - N/A Fog Fog
2:13 AM 33.8 °F 25.8 °F 32.0 °F 93% 29.60 in 0.5 mi NNW 10.4 mph - N/A Fog Fog
2:33 AM 33.8 °F 27.0 °F 32.0 °F 93% 29.61 in 0.8 mi NW 8.1 mph - N/A   Overcast
2:53 AM 33.8 °F 27.7 °F 32.0 °F 93% 29.61 in 0.8 mi NNW 6.9 mph - N/A   Overcast
3:13 AM 33.8 °F 25.8 °F 32.0 °F 93% 29.62 in 0.8 mi NW 10.4 mph - N/A   Overcast
3:33 AM 33.8 °F 25.3 °F 32.0 °F 93% 29.63 in 1.2 mi NW 11.5 mph - N/A   Overcast
3:53 AM 33.8 °F 25.3 °F 32.0 °F 93% 29.62 in 1.2 mi NNW 11.5 mph - N/A   Overcast
4:13 AM 33.8 °F 25.3 °F 32.0 °F 93% 29.61 in 1.2 mi NNW 11.5 mph - N/A   Overcast
4:33 AM 33.8 °F 25.8 °F 32.0 °F 93% 29.62 in 1.0 mi NNW 10.4 mph - N/A   Overcast
4:53 AM 33.8 °F - 32.0 °F 93% 29.62 in 1.0 mi Calm Calm - N/A   Overcast
5:13 AM 33.8 °F - 32.0 °F 93% 29.63 in 0.8 mi Calm Calm - N/A   Overcast
5:33 AM 33.8 °F - 30.2 °F 87% 29.64 in 0.8 mi Calm Calm - N/A   Overcast
5:53 AM 32.0 °F - 30.2 °F 93% 29.63 in 1.0 mi Calm Calm - N/A   Overcast
6:13 AM 32.0 °F - 30.2 °F 93% 29.64 in 1.2 mi Calm Calm - N/A   Overcast
6:33 AM 32.0 °F - 30.2 °F 93% 29.64 in 1.2 mi Calm Calm - N/A   Overcast
6:54 AM 30.2 °F - 30.2 °F 100% 29.65 in 1.5 mi Calm Calm - N/A   Overcast
7:13 AM 30.2 °F - 30.2 °F 100% 29.66 in 2.5 mi Calm Calm - N/A   Overcast
7:33 AM 30.2 °F - 30.2 °F 100% 29.66 in 4.0 mi Calm Calm - N/A   Overcast
7:53 AM 30.2 °F - 30.2 °F 100% 29.66 in 4.0 mi Calm Calm - N/A   Overcast
8:14 AM 30.2 °F - 30.2 °F 100% 29.67 in 4.0 mi Calm Calm - N/A   Overcast
8:33 AM 30.2 °F - 30.2 °F 100% 29.67 in 4.0 mi Calm Calm - N/A   Overcast
8:53 AM 30.2 °F - 30.2 °F 100% 29.68 in 4.0 mi Calm Calm - N/A   Overcast
9:13 AM 30.2 °F - 30.2 °F 100% 29.68 in 3.0 mi Calm Calm - N/A   Overcast
9:33 AM 30.2 °F - 30.2 °F 100% 29.69 in 3.0 mi Calm Calm - N/A   Overcast
9:53 AM 30.2 °F - 30.2 °F 100% 29.70 in 3.0 mi Calm Calm - N/A   Overcast
10:13 AM 30.2 °F - 30.2 °F 100% 29.70 in 3.0 mi Calm Calm - N/A   Overcast
10:33 AM 30.2 °F - 30.2 °F 100% 29.71 in 3.0 mi Calm Calm - N/A   Overcast
10:53 AM 30.2 °F - 30.2 °F 100% 29.71 in 2.5 mi Calm Calm - N/A   Overcast
11:13 AM 30.2 °F - 30.2 °F 100% 29.70 in 2.5 mi Calm Calm - N/A   Overcast
11:33 AM 30.2 °F - 30.2 °F 100% 29.72 in 3.0 mi Calm Calm - N/A   Overcast
11:53 AM 30.2 °F - 30.2 °F 100% 29.72 in 3.0 mi Calm Calm - N/A   Overcast
12:14 PM 30.2 °F - 28.4 °F 93% 29.70 in 2.5 mi Calm Calm - N/A   Overcast
12:34 PM 30.2 °F - 30.2 °F 100% 29.69 in 2.0 mi Calm Calm - N/A   Overcast
12:54 PM 30.2 °F - 30.2 °F 100% 29.70 in 2.0 mi Calm Calm - N/A   Overcast
1:13 PM 30.2 °F - 30.2 °F 100% 29.70 in 2.0 mi Calm Calm - N/A   Overcast
1:33 PM 30.2 °F - 30.2 °F 100% 29.69 in 2.0 mi Calm Calm - N/A   Overcast
1:53 PM 30.2 °F - 30.2 °F 100% 29.70 in 2.0 mi Calm Calm - N/A   Overcast
2:13 PM 30.2 °F - 30.2 °F 100% 29.69 in 2.0 mi Calm Calm - N/A   Overcast
2:34 PM 30.2 °F - 30.2 °F 100% 29.69 in 1.5 mi Calm Calm - N/A   Overcast
2:53 PM 30.2 °F - 30.2 °F 100% 29.71 in 2.0 mi Calm Calm - N/A   Overcast
3:13 PM 30.2 °F - 30.2 °F 100% 29.71 in 2.5 mi Calm Calm - N/A   Overcast
3:33 PM 30.2 °F - 28.4 °F 93% 29.72 in 2.5 mi Calm Calm - N/A   Overcast
3:53 PM 30.2 °F - 28.4 °F 93% 29.73 in 2.5 mi Calm Calm - N/A   Overcast
4:14 PM 30.2 °F - 28.4 °F 93% 29.74 in 4.0 mi Calm Calm - N/A   Overcast
4:34 PM 30.2 °F - 28.4 °F 93% 29.75 in 4.0 mi Calm Calm - N/A   Overcast
4:53 PM 28.4 °F - 28.4 °F 100% 29.74 in 4.0 mi Calm Calm - N/A   Overcast
5:13 PM 28.4 °F - 28.4 °F 100% 29.76 in 5.0 mi Calm Calm - N/A   Overcast
5:33 PM 28.4 °F - 28.4 °F 100% 29.76 in 5.0 mi Calm Calm - N/A   Overcast
5:54 PM 28.4 °F - 26.6 °F 93% 29.77 in 5.0 mi Calm Calm - N/A   Overcast
6:14 PM 28.4 °F - 26.6 °F 93% 29.77 in 7.0 mi Calm Calm - N/A   Overcast
6:33 PM 26.6 °F - 26.6 °F 100% 29.77 in 7.0 mi Calm Calm - N/A   Overcast
6:53 PM 26.6 °F - 26.6 °F 100% 29.76 in 7.0 mi Calm Calm - N/A   Overcast
7:13 PM 26.6 °F - 26.6 °F 100% 29.75 in 5.0 mi Calm Calm - N/A   Overcast
7:33 PM 26.6 °F - 26.6 °F 100% 29.74 in 4.0 mi Calm Calm - N/A   Overcast
7:53 PM 26.6 °F - 26.6 °F 100% 29.76 in 7.0 mi Calm Calm - N/A   Overcast
8:13 PM 26.6 °F - 26.6 °F 100% 29.78 in 7.0 mi Calm Calm - N/A   Overcast
8:33 PM 26.6 °F - 26.6 °F 100% 29.78 in 5.0 mi Calm Calm - N/A   Overcast
8:54 PM 26.6 °F - 24.8 °F 93% 29.76 in 4.0 mi Calm Calm - N/A   Overcast
9:13 PM 26.6 °F - 24.8 °F 93% 29.78 in 5.0 mi Calm Calm - N/A   Overcast
9:34 PM 26.6 °F - 26.6 °F 100% 29.78 in 4.0 mi Calm Calm - N/A   Overcast
9:53 PM 26.6 °F - 24.8 °F 93% 29.77 in 4.0 mi Calm Calm - N/A   Overcast
10:14 PM 26.6 °F - 24.8 °F 93% 29.76 in 3.0 mi Calm Calm - N/A   Overcast
10:34 PM 26.6 °F - 24.8 °F 93% 29.75 in 2.5 mi Calm Calm - N/A   Overcast
10:53 PM 26.6 °F - 26.6 °F 100% 29.76 in 3.0 mi Calm Calm - N/A   Overcast
11:13 PM 26.6 °F - 26.6 °F 100% 29.76 in 3.0 mi Calm Calm - N/A   Overcast
11:33 PM 26.6 °F - 26.6 °F 100% 29.76 in 3.0 mi Calm Calm - N/A   Overcast
11:53 PM 28.4 °F - 26.6 °F 93% 29.76 in 3.0 mi Calm Calm - N/A   Overcast